Location: Unspecified
(40.7945°N, 111.1337°W)
Time: 17:14:20
(UTC-06:00)

Hubble Space Telescope - Pass Details

Date: 28 March 2019
Orbit: 537 x 540 km, 28.5° (Epoch: 17 April)

Event Time Altitude Azimuth Distance (km) Brightness Sun altitude
Rises 21:30:30 0° 242° (WSW) 2,669 4.9 -20.1°
Reaches altitude 10° 21:33:38 10° 217° (SW) 1,779 3.6 -20.7°
Enters shadow 21:35:15 14° 194° (SSW) 1,548 3.0 -20.9°
